M I D A S
Marine Information and Data Acquisition System
Tripno 129 of the Zeeleeuw from 2001-05-11 11:20:00 to 2001-05-11 14:45:00
Back to CruiseResearch ActivitiesStationsMapUnderway DataData graphs

EquipmentUnitsComment
TimeDGPSUTC
LatitudeDGPSDM.mWGS84
LongitudeDGPSDM.mWGS84
HeadingGyrodeg 
SOGDGPSknotsSpeed over ground
COGDGPSdegCourse over ground
DepthEcho soundermeters200 kHz
Missing or incorrect values are displayed as -999
Navigation data collected by the RV Zeeleeuw from 2001-05-11 11:20:00 to 2001-05-11 14:45:00
Time Latitude Longitude Heading SOG COG Depth
2001-05-11 11:21:04 51°12.344 2°48.803 54.8 1.8 61.5 9
2001-05-11 11:22:04 51°12.36 2°48.844 54.3 1.8 59.2 8.9
2001-05-11 11:23:04 51°12.373 2°48.889 61 2 66.7 9
2001-05-11 11:24:04 51°12.383 2°48.937 62.5 2 71.9 9
2001-05-11 11:25:04 51°12.393 2°48.987 60.8 2 71.6 8.6
2001-05-11 11:26:04 51°12.404 2°49.027 55.8 1.4 61.9 8.8
2001-05-11 11:27:04 51°12.412 2°49.058 59.2 1.3 70.4 8.9
2001-05-11 11:28:04 51°12.412 2°49.086 71.7 1 104.5 8.8
2001-05-11 11:29:04 51°12.404 2°49.111 80.7 1.1 126.5 8.6
2001-05-11 11:30:04 51°12.388 2°49.132 99.8 1.4 149.4 8.4
2001-05-11 11:31:04 51°12.365 2°49.147 112.8 1.6 162 8.3
2001-05-11 11:32:04 51°12.32 2°49.17 150.7 5 174.5 7.9
2001-05-11 11:33:04 51°12.235 2°49.091 232.2 6.1 236.9 7.6
2001-05-11 11:34:04 51°12.215 2°48.963 277.2 4.2 267.5 7.8
2001-05-11 11:35:04 51°12.227 2°48.865 310.7 3.4 290.3 8.1
2001-05-11 11:36:04 51°12.247 2°48.799 332.7 2.3 302.2 8.4
2001-05-11 11:37:04 51°12.263 2°48.752 337.8 1.9 293 8.7
2001-05-11 11:38:04 51°12.272 2°48.708 337.5 1.6 284.9 8.9
2001-05-11 11:39:04 51°12.313 2°48.695 33.7 3.7 33.2 9.2
2001-05-11 11:40:04 51°12.305 2°48.799 118.7 5.5 139.5 8.9
2001-05-11 11:41:04 51°12.203 2°48.789 206 7.3 216.2 8.1
2001-05-11 11:42:04 51°12.176 2°48.613 292.7 6.6 289.8 8.4
2001-05-11 11:43:04 51°12.217 2°48.507 325.5 3.5 306 9.1
2001-05-11 11:44:04 51°12.242 2°48.442 334 2.4 299.2 9.4
2001-05-11 11:45:04 51°12.257 2°48.39 337.3 2.2 294.9 9.7
2001-05-11 11:46:04 51°12.265 2°48.347 340.3 1.7 281.7 10
2001-05-11 11:47:04 51°12.268 2°48.305 340.2 1.5 282.4 10.1
2001-05-11 11:48:04 51°12.313 2°48.34 53.3 8 56.4 10.1
2001-05-11 11:49:04 51°12.398 2°48.6 60.7 12.2 62.8 10
2001-05-11 11:50:04 51°12.491 2°48.876 57.8 10.7 60.7 9.8
2001-05-11 11:51:04 51°12.578 2°49.136 59 11.7 61.9 9.9
2001-05-11 11:52:04 51°12.668 2°49.417 62 11.9 66.2 9.8
2001-05-11 11:53:04 51°12.755 2°49.698 59.5 11.7 63.3 9.6
2001-05-11 11:54:04 51°12.84 2°49.967 62.8 11.4 67 9.5
2001-05-11 11:55:04 51°12.924 2°50.236 59.8 11.4 63.1 9.3
2001-05-11 11:56:05 51°13.012 2°50.509 58 11.3 61.9 9.2
2001-05-11 11:57:04 51°13.096 2°50.776 59.5 11.5 63.6 9.1
2001-05-11 11:58:05 51°13.184 2°51.053 59.3 11.5 62.7 9
2001-05-11 11:59:05 51°13.27 2°51.327 59.3 11.5 62.2 8.8
2001-05-11 12:00:05 51°13.36 2°51.6 59.3 11.7 62.9 8.8
2001-05-11 12:01:05 51°13.448 2°51.875 60.5 11.7 65 8.8
2001-05-11 12:02:05 51°13.535 2°52.16 60 12.3 63.4 8.5
2001-05-11 12:03:05 51°13.627 2°52.452 59.5 12.4 63.6 8.6
2001-05-11 12:04:04 51°13.728 2°52.733 56 12.7 58.7 8.4
2001-05-11 12:05:04 51°13.842 2°53.014 53.8 12.7 57.3 8.1
2001-05-11 12:06:05 51°13.958 2°53.305 55.2 12.8 58.2 7.8
2001-05-11 12:07:04 51°14.07 2°53.587 56.3 13 58.6 7.7
2001-05-11 12:08:04 51°14.184 2°53.877 55.3 12.8 57.1 7.5
2001-05-11 12:09:05 51°14.299 2°54.172 56 12.9 60 7.7
2001-05-11 12:10:05 51°14.411 2°54.466 54.7 13.1 58.4 8
2001-05-11 12:11:05 51°14.485 2°54.786 75.5 12.7 81.9 8.7
2001-05-11 12:12:04 51°14.434 2°55.068 116.2 10.2 120.9 8.8
2001-05-11 12:13:04 51°14.345 2°55.25 128.2 7.6 132.5 8.8
2001-05-11 12:14:05 51°14.265 2°55.385 130.3 6.6 133.3 -999
2001-05-11 12:15:05 51°14.186 2°55.486 147.7 5.8 152.4 -999
2001-05-11 12:16:05 51°14.1 2°55.551 148 6.4 153.9 -999
2001-05-11 12:17:05 51°13.999 2°55.631 151.3 7.1 154.5 8.6
2001-05-11 12:18:05 51°13.914 2°55.69 155.2 4.5 158.3 8.7
2001-05-11 12:19:04 51°13.858 2°55.729 148 3.3 152.2 9.1
2001-05-11 12:20:04 51°13.819 2°55.773 133.8 2.6 138.2 9.2
2001-05-11 12:21:04 51°13.792 2°55.819 125.8 2.3 128.3 9.2
2001-05-11 12:22:04 51°13.77 2°55.868 123.2 2.3 124.4 9.1
2001-05-11 12:23:04 51°13.751 2°55.92 115.3 2.1 118.7 8.2
2001-05-11 12:24:04 51°13.739 2°55.966 108.3 1.7 114 7.5
2001-05-11 12:25:04 51°13.728 2°55.999 116 0.5 113.7 6.2
2001-05-11 12:26:04 51°13.724 2°56.006 110 0.1 71.2 5.8
2001-05-11 12:27:09 51°13.727 2°56.007 120.3 0.1 351.6 5.9
2001-05-11 12:28:09 51°13.728 2°56.007 126 0.1 254.6 5.9
2001-05-11 12:29:09 51°13.727 2°56.007 125.7   263.7 5.9
2001-05-11 12:30:09 51°13.727 2°56.007 125.5   311.9 5.9
2001-05-11 12:31:09 51°13.726 2°56.006 124.8   244 5.9
2001-05-11 12:32:38 51°13.726 2°56.006     341.5 -999
2001-05-11 12:33:38 51°13.727 2°56.006 0.2   60.6 -999
2001-05-11 12:34:38 51°13.727 2°56.005 0.2   134.3 -999
2001-05-11 12:35:38 51°13.728 2°56.006 0.2   36.1 -999
2001-05-11 12:36:38 51°13.728 2°56.006 359.8   205.3 -999
2001-05-11 12:37:38 51°13.727 2°56.006     302.8 -999
2001-05-11 12:38:38 51°13.727 2°56.006 359.7   2.3 -999
2001-05-11 12:39:38 51°13.727 2°56.006 359.5   33.1 -999
2001-05-11 12:40:38 51°13.726 2°56.005 359.7   260.7 -999
2001-05-11 12:41:38 51°13.725 2°56.003 359.5   241.2 -999
2001-05-11 12:42:38 51°13.725 2°56.003 0.3   241.4 -999
2001-05-11 12:43:38 51°13.725 2°56.002 359.5   333.1 -999
2001-05-11 12:44:38 51°13.728 2°56.005 359.3   202.2 -999
2001-05-11 12:45:38 51°13.728 2°56.006 359.5   97.8 -999
2001-05-11 12:46:38 51°13.729 2°56.006 359.7   304.5 -999
2001-05-11 12:47:38 51°13.729 2°56.006 359.3   215.2 -999
2001-05-11 12:48:38 51°13.728 2°56.006 358.8 0.1 201.5 -999
2001-05-11 12:49:38 51°13.724 2°56.003     120.9 -999
2001-05-11 12:50:38 51°13.725 2°56.004 359.7   114.4 -999
2001-05-11 12:51:38 51°13.726 2°56.005 359.3   113.9 -999
2001-05-11 12:52:38 51°13.726 2°56.006 359.2   1.1 -999
2001-05-11 12:53:38 51°13.727 2°56.006 359.7   27.7 -999
2001-05-11 12:54:38 51°13.727 2°56.007 359.3   153.7 -999
2001-05-11 12:55:38 51°13.727 2°56.007 359.5   305.4 -999
2001-05-11 12:56:38 51°13.726 2°56.006 358.7   339.1 -999
2001-05-11 12:57:38 51°13.726 2°56.006 358.8   219.7 -999
2001-05-11 12:58:38 51°13.726 2°56.005 358.8   134.3 -999
2001-05-11 12:59:38 51°13.726 2°56.005 359   30.7 -999
2001-05-11 13:00:38 51°13.725 2°56.005 358.8   104.8 -999
2001-05-11 13:01:38 51°13.726 2°56.005 358.7   131.2 -999
2001-05-11 13:02:38 51°13.725 2°56.007 358   169.2 -999
2001-05-11 13:03:38 51°13.726 2°56.007 358.5   142.9 -999
2001-05-11 13:04:38 51°13.725 2°56.006 358.8   78.4 -999
2001-05-11 13:05:38 51°13.726 2°56.006 358.7   137.5 -999
2001-05-11 13:06:38 51°13.726 2°56.007 358.3   98.8 -999
2001-05-11 13:07:38 51°13.727 2°56.006 359.3   160.6 -999
2001-05-11 13:08:38 51°13.727 2°56.005 358   224.7 -999
2001-05-11 13:09:38 51°13.728 2°56.005 358.5   43.5 -999
2001-05-11 13:10:38 51°13.727 2°56.005 358.5   249.3 -999
2001-05-11 13:11:38 51°13.727 2°56.005 358.5   184.6 -999
2001-05-11 13:12:38 51°13.727 2°56.005 358.3   125.6 -999
2001-05-11 13:13:38 51°13.727 2°56.006 358   226.2 -999
2001-05-11 13:14:38 51°13.727 2°56.006 359   113.2 -999
2001-05-11 13:15:38 51°13.727 2°56.006 358.5   354.1 -999